This is the latest recevied weather packets stored in our database for station/object WD4HMR. If no packets are shown the sender has not sent any weather packets the latest 10 day(s).
| Time | Temp. | Humidity | Pressure | Rain* | Wind** | Luminosity | Snow |
|---|---|---|---|---|---|---|---|
| 1777438804 | 17.22° C | 99% | 1012.5 hPa | 0 mm | - | 0 W/m² | - |
| 1777438204 | 17.22° C | 99% | 1012.5 hPa | 0 mm | - | 0 W/m² | - |
| 1777437004 | 17.22° C | 99% | 1011.9 hPa | 0 mm | - | 0 W/m² | - |
| 1777436104 | 17.22° C | 99% | 1011.5 hPa | 0 mm | - | 0 W/m² | - |
| 1777435504 | 17.22° C | 100% | 1011.5 hPa | 0 mm | - | 0 W/m² | - |
| 1777434303 | 17.22° C | 99% | 1012 hPa | 0 mm | - | 0 W/m² | - |
| 1777433404 | 17.22° C | 99% | 1012.4 hPa | 0 mm | - | 0 W/m² | - |
| 1777431004 | 17.22° C | 99% | 1013 hPa | 0 mm | - | 0 W/m² | - |
| 1777430404 | 17.22° C | 99% | 1013.2 hPa | 0 mm | - | 0 W/m² | - |
| 1777429504 | 17.22° C | 99% | 1014 hPa | 0 mm | - | 0 W/m² | - |
| 1777426505 | 17.22° C | 100% | 1015.4 hPa | 0 mm | - | 0 W/m² | - |
| 1777425004 | 17.78° C | 100% | 1015 hPa | 0 mm | - | 0 W/m² | - |
| 1777423204 | 17.22° C | 99% | 1015 hPa | 0 mm | - | 0 W/m² | - |
| 1777422903 | 17.22° C | 98% | 1012.7 hPa | 2.29 mm | - | 0 W/m² | - |
| 1777421705 | 17.78° C | 98% | 1013.2 hPa | 0 mm | - | 24 W/m² | - |
| 1777420804 | 17.78° C | 98% | 1015.6 hPa | 0 mm | - | 36 W/m² | - |
| 1777418404 | 17.78° C | 97% | 1015 hPa | 0 mm | - | 67 W/m² | - |
| 1777417804 | 17.78° C | 97% | 1015 hPa | 0 mm | - | 80 W/m² | - |
| 1777417204 | 17.78° C | 96% | 1014.3 hPa | 0 mm | - | 107 W/m² | - |
| 1777414803 | 17.78° C | 96% | 1013.7 hPa | 0 mm | - | 325 W/m² | - |
| 1777413904 | 17.78° C | 95% | 1014.5 hPa | 0 mm | - | 327 W/m² | - |
| 1777413603 | 17.78° C | 95% | 1014.6 hPa | 0 mm | - | 382 W/m² | - |
| 1777412704 | 18.33° C | 94% | 1015.1 hPa | 0 mm | - | 712 W/m² | - |
| 1777412404 | 18.33° C | 95% | 1015.2 hPa | 0 mm | - | 733 W/m² | - |
| 1777412104 | 18.33° C | 95% | 1015.3 hPa | 0 mm | - | 745 W/m² | - |
* Rain latest hour (hover to see other rain measurements)
** Current wind speed in m/s (hover to see current wind gust speed)